Weather History for Fort Wayne, IN

Change the Weather History Date:

Tuesday, February 26, 2013

  Actual Average Record
Temperature  
Mean Temperature 33 °F 32 °F  
Max Temperature 35 °F 40 °F 66 °F (1944)
Min Temperature 30 °F 23 °F -17 °F (1963)
Degree Days  
Heating Degree Days 32 33  
Month to date heating degree days 981 960  
Since 1 July heating degree days 4328 4531  
Cooling Degree Days 0 0  
Month to date cooling degree days 0 0  
Year to date cooling degree days 0 0  
Moisture  
Dew Point 30 °F    
Average Humidity 86    
Maximum Humidity 100    
Minimum Humidity 72    
Precipitation  
Precipitation 0.86 in 0.07 in 2.33 in (1936)
Month to date precipitation 1.48 1.88  
Year to date precipitation 4.91 4.14  
Snow  
Snow T in 0.30 in 4.60 in (2008)
Month to date snowfall 5.9 7.3  
Since 1 July snowfall 18.1 28.0  
Snow Depth 0.00 in    
Sea Level Pressure  
Sea Level Pressure 29.63 in    
Wind  
Wind Speed 18 mph (ENE)    
Max Wind Speed 35 mph    
Max Gust Speed 41 mph    
Visibility 6 miles    
Events Rain    
T = Trace of Precipitation, MM = Missing Value Source: NWS Daily Summary

Daily Weather History Graph

Daily Weather History Graph

Search for Another Location

Airport:

Trip Planner

Search our weather history database for the weather conditions in past years. The results will help you decide how hot, cold, wet, or windy it might be!

Date:

Astronomy

Feb. 26, 2013 Rise Set
Actual Time 7:19 AM EST 6:28 PM EST
Civil Twilight 6:51 AM EST 6:56 PM EST
Nautical Twilight 6:19 AM EST 7:28 PM EST
Astronomical Twilight 5:47 AM EST 8:00 PM EST
Moon 7:45 PM EST (2/26) 7:20 AM EST (2/26)
Length of Visible Light 12h 04m
Length of Day
11h 09m
Full, 99% of the Moon is Illuminated
Feb 26
Full
Mar 4
Last Quarter
Mar 11
New
Mar 19
First Quarter
Mar 27
Full

Hourly Weather History & Observations

Time (EST) Temp. Windchill Dew Point Humidity Pressure Visibility Wind Dir Wind Speed Gust Speed Precip Events Conditions
12:54 AM 30.0 °F 18.3 °F 24.1 °F 79% 29.99 in 10.0 mi ENE 17.3 mph - N/A   Overcast
1:54 AM 30.0 °F 18.3 °F 25.0 °F 82% 29.99 in 10.0 mi ENE 17.3 mph - N/A   Overcast
2:54 AM 30.0 °F 18.7 °F 25.0 °F 82% 29.96 in 10.0 mi ENE 16.1 mph - N/A   Overcast
3:54 AM 30.9 °F 19.1 °F 25.0 °F 79% 29.88 in 10.0 mi ENE 18.4 mph 29.9 mph N/A   Overcast
4:54 AM 30.9 °F 18.7 °F 25.0 °F 79% 29.86 in 10.0 mi ENE 19.6 mph 28.8 mph N/A   Overcast
5:54 AM 30.9 °F 17.8 °F 25.0 °F 79% 29.82 in 10.0 mi ENE 23.0 mph 31.1 mph N/A   Overcast
6:54 AM 30.9 °F 17.8 °F 25.0 °F 79% 29.80 in 10.0 mi ENE 23.0 mph 29.9 mph N/A   Overcast
7:54 AM 32.0 °F 20.5 °F 25.0 °F 75% 29.81 in 10.0 mi ENE 18.4 mph 27.6 mph N/A   Overcast
8:32 AM 32.0 °F 20.1 °F 24.8 °F 75% 29.76 in 10.0 mi ENE 19.6 mph 33.4 mph 0.00 in Rain Light Freezing Rain
8:54 AM 32.0 °F 19.2 °F 27.0 °F 82% 29.77 in 6.0 mi NE 23.0 mph 31.1 mph 0.00 in Rain Light Freezing Rain
9:13 AM 32.0 °F 18.9 °F 28.4 °F 87% 29.73 in 6.0 mi ENE 24.2 mph 31.1 mph 0.02 in Rain Light Freezing Rain
9:54 AM 32.0 °F 19.5 °F 28.9 °F 88% 29.73 in 7.0 mi ENE 21.9 mph 31.1 mph 0.09 in Rain Light Freezing Rain
10:15 AM 32.0 °F 18.9 °F 28.4 °F 87% 29.69 in 6.0 mi ENE 24.2 mph 32.2 mph 0.00 in Rain Light Freezing Rain
10:54 AM 32.0 °F 17.6 °F 30.0 °F 92% 29.65 in 6.0 mi ENE 29.9 mph 38.0 mph 0.07 in Rain Light Freezing Rain
11:26 AM 32.0 °F 17.4 °F 30.2 °F 93% 29.59 in 7.0 mi ENE 31.1 mph 39.1 mph 0.02 in Rain Light Freezing Rain
11:35 AM 32.0 °F 16.7 °F 30.2 °F 93% 29.58 in 5.0 mi ENE 34.5 mph 40.3 mph 0.04 in Rain Light Freezing Rain
11:54 AM 32.0 °F 18.4 °F 30.0 °F 92% 29.60 in 6.0 mi ENE 26.5 mph 41.4 mph 0.06 in Rain Light Freezing Rain
12:10 PM 32.0 °F 18.4 °F 30.2 °F 93% 29.57 in 2.5 mi East 26.5 mph 36.8 mph 0.04 in Rain Heavy Freezing Rain
12:43 PM 33.8 °F 21.6 °F 32.0 °F 93% 29.57 in 2.5 mi East 23.0 mph 28.8 mph 0.17 in Rain Rain
12:54 PM 33.1 °F 20.6 °F 32.0 °F 96% 29.58 in 3.0 mi ENE 23.0 mph 31.1 mph 0.19 in Rain Rain
1:54 PM 33.1 °F 21.2 °F 32.0 °F 96% 29.55 in 4.0 mi East 20.7 mph 32.2 mph 0.08 in Rain Light Rain
2:04 PM 33.8 °F 22.5 °F 32.0 °F 93% 29.52 in 3.0 mi ENE 19.6 mph 32.2 mph 0.01 in Rain Light Rain
2:40 PM 33.8 °F 21.0 °F 32.0 °F 93% 29.49 in 7.0 mi ENE 25.3 mph 29.9 mph 0.04 in Rain Light Rain
2:54 PM 33.1 °F 21.9 °F 32.0 °F 96% 29.51 in 7.0 mi East 18.4 mph 33.4 mph 0.04 in Rain Light Rain
3:07 PM 33.8 °F 21.3 °F 32.0 °F 93% 29.48 in 2.0 mi ENE 24.2 mph 33.4 mph 0.00 in   Light Drizzle
3:26 PM 33.8 °F 22.2 °F 32.0 °F 93% 29.48 in 3.0 mi ENE 20.7 mph 28.8 mph 0.02 in   Light Drizzle
3:42 PM 33.8 °F 21.9 °F 32.0 °F 93% 29.48 in 3.0 mi ENE 21.9 mph 27.6 mph 0.02 in Rain Light Rain
3:54 PM 33.1 °F 21.5 °F 32.0 °F 96% 29.49 in 3.0 mi ENE 19.6 mph - 0.02 in Rain Light Rain
4:13 PM 33.8 °F 22.2 °F 32.0 °F 93% 29.47 in 3.0 mi ENE 20.7 mph 28.8 mph 0.01 in Rain Light Rain
4:54 PM 33.1 °F 21.9 °F 32.0 °F 96% 29.49 in 2.5 mi ENE 18.4 mph 26.5 mph 0.05 in Rain Rain
5:14 PM 33.8 °F 21.9 °F 32.0 °F 93% 29.46 in 4.0 mi ENE 21.9 mph 26.5 mph 0.03 in Rain Light Rain
5:54 PM 33.1 °F 21.9 °F 33.1 °F 100% 29.47 in 2.5 mi ENE 18.4 mph - 0.05 in Rain Light Rain
6:19 PM 33.8 °F 23.9 °F 33.8 °F 100% 29.45 in 5.0 mi ENE 15.0 mph - 0.03 in Rain Light Rain
6:54 PM 34.0 °F 23.0 °F 33.1 °F 96% 29.48 in 6.0 mi ENE 18.4 mph - 0.04 in Rain Light Rain
7:54 PM 34.0 °F 25.5 °F 33.1 °F 96% 29.47 in 5.0 mi ENE 11.5 mph - 0.03 in Rain Light Rain
8:54 PM 34.0 °F 29.8 °F 34.0 °F 100% 29.47 in 5.0 mi ENE 4.6 mph - 0.00 in Rain Light Rain
9:54 PM 34.0 °F 28.0 °F 34.0 °F 100% 29.46 in 4.0 mi East 6.9 mph - 0.04 in Rain Light Rain
10:54 PM 35.1 °F - 34.0 °F 96% 29.46 in 4.0 mi Calm Calm - 0.02 in Rain Light Rain
11:54 PM 34.0 °F 31.0 °F 33.1 °F 96% 29.46 in 2.5 mi Variable 3.5 mph - 0.06 in Rain Light Rain